| time (UTC) | temp F | wind direction | speed MPH | gust MPH | rain 1hr in | rain 24hr in | rain mn in | humidity % | barometer mb |
| 20260505041520 | 51 | 215 | 18.0 | 19.0 | 0.00 | 0.00 | 0.00 | 88 | 1012.3 |
| 20260505041017 | 51 | 212 | 18.0 | 20.0 | 0.00 | 0.00 | 0.00 | 88 | 1012.3 |
| 20260505040514 | 52 | 210 | 18.0 | 21.0 | 0.00 | 0.00 | 0.00 | 87 | 1012.3 |
| 20260505040012 | 52 | 202 | 20.0 | 24.0 | 0.00 | 0.00 | 0.00 | 88 | 1012.2 |
| 20260505035508 | 51 | 212 | 18.0 | 21.0 | 0.00 | 0.00 | 0.00 | 88 | 1012.3 |
| 20260505035005 | 51 | 201 | 18.0 | 19.0 | 0.00 | 0.00 | 0.00 | 88 | 1012.3 |
| 20260505034501 | 51 | 203 | 15.0 | 20.0 | 0.00 | 0.00 | 0.00 | 87 | 1012.3 |
| 20260505033958 | 51 | 201 | 16.0 | 22.0 | 0.00 | 0.00 | 0.00 | 88 | 1012.1 |
| 20260505033455 | 51 | 207 | 19.0 | 20.0 | 0.00 | 0.00 | 0.00 | 88 | 1012.3 |
| 20260505032953 | 51 | 200 | 11.0 | 22.0 | 0.00 | 0.00 | 0.00 | 88 | 1012.2 |
| 20260505032450 | 51 | 205 | 18.0 | 19.0 | 0.00 | 0.00 | 0.00 | 88 | 1012.3 |
| 20260505031946 | 51 | 212 | 18.0 | 21.0 | 0.00 | 0.00 | 0.00 | 89 | 1012.5 |
| 20260505031443 | 51 | 209 | 15.0 | 21.0 | 0.00 | 0.00 | 0.00 | 88 | 1012.5 |
| 20260505030940 | 51 | 196 | 14.0 | 19.0 | 0.00 | 0.00 | 0.00 | 88 | 1012.4 |
| 20260505030436 | 51 | 200 | 12.0 | 20.0 | 0.00 | 0.00 | 0.00 | 88 | 1012.5 |
| 20260505025931 | 51 | 196 | 10.0 | 19.0 | 0.00 | 0.00 | 0.00 | 88 | 1012.4 |
| 20260505025429 | 51 | 215 | 16.0 | 19.0 | 0.00 | 0.00 | 0.00 | 88 | 1012.5 |
| 20260505024928 | 51 | 211 | 15.0 | 21.0 | 0.00 | 0.00 | 0.00 | 88 | 1012.5 |
| 20260505024425 | 51 | 206 | 13.0 | 17.0 | 0.00 | 0.00 | 0.00 | 88 | 1012.5 |
| 20260505023922 | 51 | 209 | 13.0 | 15.0 | 0.00 | 0.00 | 0.00 | 88 | 1012.4 |
| 20260505023419 | 51 | 210 | 12.0 | 17.0 | 0.00 | 0.00 | 0.00 | 88 | 1012.6 |
| 20260505022916 | 51 | 203 | 12.0 | 18.0 | 0.00 | 0.00 | 0.00 | 88 | 1012.5 |
| 20260505022414 | 51 | 203 | 14.0 | 21.0 | 0.00 | 0.00 | 0.00 | 88 | 1012.4 |
| 20260505021910 | 51 | 202 | 14.0 | 16.0 | 0.00 | 0.00 | 0.00 | 88 | 1012.6 |
| 20260505021407 | 51 | 209 | 15.0 | 17.0 | 0.00 | 0.00 | 0.00 | 88 | 1012.7 |
| 20260505020903 | 51 | 215 | 13.0 | 16.0 | 0.00 | 0.00 | 0.00 | 88 | 1012.7 |
| 20260505020358 | 51 | 209 | 18.0 | 19.0 | 0.00 | 0.00 | 0.00 | 87 | 1012.6 |
| 20260505015855 | 51 | 209 | 13.0 | 19.0 | 0.00 | 0.00 | 0.00 | 87 | 1012.8 |
| 20260505015352 | 51 | 198 | 12.0 | 17.0 | 0.00 | 0.00 | 0.00 | 87 | 1012.7 |
| 20260505014850 | 51 | 204 | 14.0 | 17.0 | 0.00 | 0.00 | 0.00 | 87 | 1012.7 |
| 20260505014347 | 51 | 208 | 13.0 | 17.0 | 0.00 | 0.00 | 0.00 | 86 | 1012.5 |
| 20260505013843 | 51 | 206 | 15.0 | 18.0 | 0.00 | 0.00 | 0.00 | 86 | 1012.5 |
| 20260505013340 | 51 | 197 | 12.0 | 17.0 | 0.00 | 0.00 | 0.00 | 86 | 1012.6 |
| 20260505012839 | 51 | 210 | 14.0 | 17.0 | 0.00 | 0.00 | 0.00 | 85 | 1012.5 |
| 20260505012337 | 51 | 209 | 16.0 | 19.0 | 0.00 | 0.00 | 0.00 | 85 | 1012.5 |
| 20260505011832 | 51 | 212 | 21.0 | 22.0 | 0.00 | 0.00 | 0.00 | 85 | 1012.3 |
| 20260505011329 | 51 | 215 | 21.0 | 22.0 | 0.00 | 0.00 | 0.00 | 85 | 1012.4 |
| 20260505010825 | 51 | 212 | 21.0 | 23.0 | 0.00 | 0.00 | 0.00 | 85 | 1012.2 |
| 20260505010321 | 51 | 208 | 15.0 | 19.0 | 0.00 | 0.00 | 0.00 | 84 | 1012.2 |
| 20260505005817 | 51 | 215 | 17.0 | 20.0 | 0.00 | 0.00 | 0.00 | 84 | 1012.0 |
| 20260505005315 | 51 | 215 | 15.0 | 21.0 | 0.00 | 0.00 | 0.00 | 83 | 1011.9 |
| 20260505004812 | 51 | 214 | 17.0 | 23.0 | 0.00 | 0.00 | 0.00 | 83 | 1011.9 |
| 20260505004308 | 51 | 205 | 20.0 | 23.0 | 0.00 | 0.00 | 0.00 | 82 | 1011.7 |
| 20260505003806 | 52 | 219 | 16.0 | 21.0 | 0.00 | 0.00 | 0.00 | 82 | 1011.8 |
| 20260505003303 | 52 | 220 | 18.0 | 20.0 | 0.00 | 0.00 | 0.00 | 81 | 1011.7 |
| 20260505002759 | 52 | 221 | 17.0 | 17.0 | 0.00 | 0.00 | 0.00 | 81 | 1011.6 |
| 20260505002256 | 52 | 206 | 17.0 | 21.0 | 0.00 | 0.00 | 0.00 | 80 | 1011.5 |
| 20260505001754 | 52 | 198 | 15.0 | 22.0 | 0.00 | 0.00 | 0.00 | 80 | 1011.5 |
| 20260505001251 | 52 | 208 | 22.0 | 22.0 | 0.00 | 0.00 | 0.00 | 78 | 1011.4 |
| 20260505000748 | 52 | 208 | 22.0 | 22.0 | 0.00 | 0.00 | 0.00 | 78 | 1011.3 |
| 20260505000246 | 52 | 208 | 22.0 | 22.0 | 0.00 | 0.00 | 0.00 | 78 | 1011.3 |
| 20260504235742 | 0 | 0.0 | 0.0 | 0.00 | 0.00 | 0.00 | 1011.1 | ||
| 20260504235238 | 0 | 0.0 | 0.0 | 0.00 | 0.00 | 0.00 | 1011.1 | ||
| 20260504234736 | 0 | 0.0 | 0.0 | 0.00 | 0.00 | 0.00 | 1011.0 | ||
| 20260504234233 | 0 | 0.0 | 0.0 | 0.00 | 0.00 | 0.00 | 1011.2 | ||
| 20260504233729 | 0 | 0.0 | 0.0 | 0.00 | 0.00 | 0.00 | 1011.0 | ||
| 20260504233225 | 0 | 0.0 | 0.0 | 0.00 | 0.00 | 0.00 | 1011.1 | ||
| 20260504232723 | 0 | 0.0 | 0.0 | 0.00 | 0.00 | 0.00 | 1011.1 | ||
| 20260504232219 | 0 | 0.0 | 0.0 | 0.00 | 0.00 | 0.00 | 1010.8 | ||
| 20260504231716 | 0 | 0.0 | 0.0 | 0.00 | 0.00 | 0.00 | 1010.9 | ||
| 20260504231213 | 0 | 0.0 | 0.0 | 0.00 | 0.00 | 0.00 | 1011.0 | ||
| 20260504230709 | 0 | 0.0 | 0.0 | 0.00 | 0.00 | 0.00 | 1011.0 | ||
| 20260504230208 | 0 | 0.0 | 0.0 | 0.00 | 0.00 | 0.00 | 1010.9 | ||
| 20260504225706 | 0 | 0.0 | 0.0 | 0.00 | 0.00 | 0.00 | 1010.8 | ||
| 20260504225201 | 0 | 0.0 | 0.0 | 0.00 | 0.00 | 0.00 | 1010.8 | ||
| 20260504224659 | 0 | 0.0 | 0.0 | 0.00 | 0.00 | 0.00 | 1010.9 | ||
| 20260504224156 | 0 | 0.0 | 0.0 | 0.00 | 0.00 | 0.00 | 1010.9 | ||
| 20260504223653 | 0 | 0.0 | 0.0 | 0.00 | 0.00 | 0.00 | 1010.9 | ||
| 20260504223148 | 0 | 0.0 | 0.0 | 0.00 | 0.00 | 0.00 | 1010.9 | ||
| 20260504222645 | 0 | 0.0 | 0.0 | 0.00 | 0.00 | 0.00 | 1010.8 | ||
| 20260504222142 | 0 | 0.0 | 0.0 | 0.00 | 0.00 | 0.00 | 1011.0 | ||
| 20260504221640 | 0 | 0.0 | 0.0 | 0.00 | 0.00 | 0.00 | 1010.9 | ||
| 20260504221136 | 0 | 0.0 | 0.0 | 0.00 | 0.00 | 0.00 | 1011.0 | ||
| 20260504220633 | 0 | 0.0 | 0.0 | 0.00 | 0.00 | 0.00 | 1011.0 | ||
| 20260504220131 | 54 | 209 | 18.0 | 22.0 | 0.00 | 0.00 | 0.00 | 73 | 1011.1 |
| 20260504215626 | 54 | 209 | 18.0 | 22.0 | 0.00 | 0.00 | 0.00 | 73 | 1011.0 |
| 20260504215124 | 54 | 209 | 18.0 | 22.0 | 0.00 | 0.00 | 0.00 | 73 | 1011.1 |
| 20260504214620 | 54 | 209 | 18.0 | 22.0 | 0.00 | 0.00 | 0.00 | 73 | 1010.9 |
| 20260504214116 | 54 | 209 | 18.0 | 22.0 | 0.00 | 0.00 | 0.00 | 73 | 1010.9 |
| 20260504213613 | 54 | 209 | 18.0 | 22.0 | 0.00 | 0.00 | 0.00 | 73 | 1010.7 |
| 20260504213110 | 54 | 209 | 18.0 | 22.0 | 0.00 | 0.00 | 0.00 | 73 | 1010.9 |
| 20260504212606 | 54 | 209 | 18.0 | 22.0 | 0.00 | 0.00 | 0.00 | 73 | 1010.8 |
| 20260504212103 | 54 | 209 | 18.0 | 22.0 | 0.00 | 0.00 | 0.00 | 73 | 1010.9 |
| 20260504211600 | 54 | 209 | 18.0 | 22.0 | 0.00 | 0.00 | 0.00 | 73 | 1011.1 |
| 20260504211057 | 54 | 209 | 18.0 | 22.0 | 0.00 | 0.00 | 0.00 | 73 | 1010.8 |
| 20260504210554 | 54 | 209 | 18.0 | 22.0 | 0.00 | 0.00 | 0.00 | 73 | 1010.7 |
| 20260504210050 | 53 | 215 | 22.0 | 22.0 | 0.00 | 0.00 | 0.00 | 73 | 1010.9 |
| 20260504205548 | 53 | 210 | 21.0 | 28.0 | 0.00 | 0.00 | 0.00 | 75 | 1010.8 |
| 20260504205046 | 53 | 210 | 21.0 | 28.0 | 0.00 | 0.00 | 0.00 | 75 | 1010.8 |
| 20260504204544 | 53 | 210 | 21.0 | 28.0 | 0.00 | 0.00 | 0.00 | 75 | 1010.7 |
| 20260504204043 | 53 | 210 | 21.0 | 28.0 | 0.00 | 0.00 | 0.00 | 75 | 1010.7 |
| 20260504203540 | 53 | 210 | 21.0 | 28.0 | 0.00 | 0.00 | 0.00 | 75 | 1010.6 |
| 20260504203038 | 53 | 202 | 17.0 | 28.0 | 0.00 | 0.00 | 0.00 | 75 | 1010.6 |
| 20260504202533 | 53 | 203 | 23.0 | 29.0 | 0.00 | 0.00 | 0.00 | 74 | 1010.5 |
| 20260504202030 | 53 | 207 | 20.0 | 24.0 | 0.00 | 0.00 | 0.00 | 75 | 1010.5 |
| 20260504201527 | 53 | 212 | 24.0 | 29.0 | 0.00 | 0.00 | 0.00 | 75 | 1010.5 |
| 20260504201025 | 53 | 206 | 27.0 | 30.0 | 0.00 | 0.00 | 0.00 | 75 | 1010.5 |
| 20260504200521 | 53 | 210 | 23.0 | 26.0 | 0.00 | 0.00 | 0.00 | 74 | 1010.8 |
| 20260504200018 | 53 | 219 | 23.0 | 24.0 | 0.00 | 0.00 | 0.00 | 74 | 1010.5 |
| 20260504195514 | 53 | 215 | 26.0 | 36.0 | 0.00 | 0.00 | 0.00 | 74 | 1010.6 |
| 20260504195011 | 53 | 201 | 20.0 | 25.0 | 0.00 | 0.00 | 0.00 | 74 | 1010.7 |
| 20260504194507 | 53 | 210 | 20.0 | 22.0 | 0.00 | 0.00 | 0.00 | 74 | 1010.4 |
| 20260504194002 | 54 | 211 | 17.0 | 22.0 | 0.00 | 0.00 | 0.00 | 72 | 1010.5 |
| 20260504193500 | 54 | 211 | 17.0 | 22.0 | 0.00 | 0.00 | 0.00 | 72 | 1010.6 |
| 20260504192959 | 54 | 211 | 17.0 | 22.0 | 0.00 | 0.00 | 0.00 | 72 | 1010.6 |
| 20260504192455 | 54 | 203 | 24.0 | 26.0 | 0.00 | 0.00 | 0.00 | 72 | 1010.4 |
| 20260504191955 | 54 | 203 | 24.0 | 26.0 | 0.00 | 0.00 | 0.00 | 72 | 1010.6 |
| 20260504191452 | 54 | 204 | 24.0 | 26.0 | 0.00 | 0.00 | 0.00 | 74 | 1010.6 |
| 20260504190947 | 54 | 208 | 21.0 | 21.0 | 0.00 | 0.00 | 0.00 | 74 | 1010.8 |
| 20260504190443 | 54 | 213 | 20.0 | 23.0 | 0.00 | 0.00 | 0.00 | 75 | 1010.9 |
| 20260504185940 | 54 | 214 | 18.0 | 22.0 | 0.00 | 0.00 | 0.00 | 76 | 1011.1 |
| 20260504185437 | 54 | 214 | 18.0 | 22.0 | 0.00 | 0.00 | 0.00 | 76 | 1010.9 |
| 20260504184933 | 53 | 200 | 21.0 | 23.0 | 0.00 | 0.00 | 0.00 | 77 | 1011.0 |
| 20260504184429 | 53 | 200 | 21.0 | 23.0 | 0.00 | 0.00 | 0.00 | 77 | 1011.0 |
| 20260504183925 | 53 | 200 | 21.0 | 23.0 | 0.00 | 0.00 | 0.00 | 77 | 1011.1 |
| 20260504183422 | 54 | 210 | 18.0 | 26.0 | 0.00 | 0.00 | 0.00 | 75 | 1011.3 |
| 20260504182920 | 54 | 210 | 18.0 | 26.0 | 0.00 | 0.00 | 0.00 | 75 | 1011.2 |
| 20260504182417 | 54 | 210 | 18.0 | 26.0 | 0.00 | 0.00 | 0.00 | 75 | 1011.3 |
| 20260504181914 | 54 | 211 | 23.0 | 27.0 | 0.00 | 0.00 | 0.00 | 75 | 1011.4 |
| 20260504181411 | 54 | 211 | 23.0 | 27.0 | 0.00 | 0.00 | 0.00 | 75 | 1011.2 |
| 20260504180910 | 54 | 211 | 23.0 | 27.0 | 0.00 | 0.00 | 0.00 | 75 | 1011.1 |
| 20260504180408 | 54 | 211 | 23.0 | 27.0 | 0.00 | 0.00 | 0.00 | 75 | 1011.2 |
| 20260504175906 | 54 | 211 | 23.0 | 27.0 | 0.00 | 0.00 | 0.00 | 75 | 1011.0 |
| 20260504175403 | 54 | 211 | 23.0 | 27.0 | 0.00 | 0.00 | 0.00 | 75 | 1011.1 |
| 20260504174900 | 54 | 211 | 23.0 | 27.0 | 0.00 | 0.00 | 0.00 | 75 | 1011.1 |
| 20260504174358 | 54 | 209 | 18.0 | 21.0 | 0.00 | 0.00 | 0.00 | 75 | 1011.3 |
| 20260504173855 | 54 | 212 | 25.0 | 25.0 | 0.00 | 0.00 | 0.00 | 75 | 1011.1 |
| 20260504173351 | 54 | 213 | 24.0 | 26.0 | 0.00 | 0.00 | 0.00 | 75 | 1011.3 |
| 20260504172849 | 54 | 214 | 24.0 | 28.0 | 0.00 | 0.00 | 0.00 | 75 | 1011.2 |
| 20260504172345 | 53 | 214 | 21.0 | 26.0 | 0.00 | 0.00 | 0.00 | 75 | 1011.1 |
| 20260504171841 | 53 | 205 | 22.0 | 29.0 | 0.00 | 0.00 | 0.00 | 75 | 1011.3 |
| 20260504171338 | 53 | 211 | 18.0 | 29.0 | 0.00 | 0.00 | 0.00 | 76 | 1011.3 |
| 20260504170835 | 53 | 210 | 26.0 | 28.0 | 0.00 | 0.00 | 0.00 | 76 | 1011.4 |
| 20260504170332 | 53 | 215 | 24.0 | 31.0 | 0.00 | 0.00 | 0.00 | 76 | 1011.4 |
| 20260504160250 | 55 | 226 | 15.0 | 20.0 | 0.00 | 0.00 | 0.00 | 70 | 1011.6 |
| 20260504150716 | 55 | 220 | 18.0 | 27.0 | 0.00 | 0.00 | 0.00 | 65 | 1012.1 |
| 20260504150212 | 55 | 210 | 18.0 | 25.0 | 0.00 | 0.00 | 0.00 | 64 | 1012.2 |
| 20260504141142 | 55 | 208 | 15.0 | 18.0 | 0.00 | 0.00 | 0.00 | 60 | 1012.3 |
| 20260504140639 | 54 | 204 | 17.0 | 18.0 | 0.00 | 0.00 | 0.00 | 63 | 1012.3 |
| 20260504140134 | 54 | 213 | 15.0 | 17.0 | 0.00 | 0.00 | 0.00 | 63 | 1012.2 |
| 20260504130602 | 52 | 204 | 19.0 | 27.0 | 0.00 | 0.00 | 0.00 | 68 | 1012.5 |
| 20260504110450 | 0 | 0.0 | 0.0 | 0.00 | 0.00 | 0.00 | 1012.4 | ||
| 20260504100412 | 0 | 0.0 | 0.0 | 0.00 | 0.00 | 0.00 | 1012.3 | ||
| 20260504081806 | 0 | 0.0 | 0.0 | 0.00 | 0.00 | 0.00 | 1011.7 | ||
| 20260504081302 | 0 | 0.0 | 0.0 | 0.00 | 0.00 | 0.00 | 1011.9 | ||
| 20260504080758 | 0 | 0.0 | 0.0 | 0.00 | 0.00 | 0.00 | 1011.8 | ||
| 20260504080255 | 0 | 0.0 | 0.0 | 0.00 | 0.00 | 0.00 | 1011.8 | ||
| 20260504070223 | 0 | 0.0 | 0.0 | 0.00 | 0.00 | 0.00 | 1011.7 | ||
| 20260504060143 | 48 | 214 | 6.0 | 6.0 | 0.00 | 0.00 | 0.00 | 74 | 1011.2 |
| 20260504050611 | 48 | 224 | 5.0 | 6.0 | 0.00 | 0.00 | 0.00 | 74 | 1011.5 |
| 20260504050108 | 48 | 216 | 6.0 | 9.0 | 0.00 | 0.00 | 0.00 | 74 | 1011.6 |
| 20260504045605 | 48 | 213 | 7.0 | 7.0 | 0.00 | 0.00 | 0.00 | 75 | 1011.4 |
| 20260504045100 | 48 | 223 | 6.0 | 9.0 | 0.00 | 0.00 | 0.00 | 74 | 1011.3 |
| 20260504044558 | 48 | 225 | 7.0 | 9.0 | 0.00 | 0.00 | 0.00 | 74 | 1011.6 |
| 20260504044054 | 48 | 215 | 8.0 | 11.0 | 0.00 | 0.00 | 0.00 | 73 | 1011.6 |
| 20260504043552 | 48 | 213 | 9.0 | 11.0 | 0.00 | 0.00 | 0.00 | 73 | 1011.6 |
| 20260504043049 | 48 | 219 | 10.0 | 13.0 | 0.00 | 0.00 | 0.00 | 74 | 1011.5 |
| 20260504042546 | 48 | 217 | 11.0 | 13.0 | 0.00 | 0.00 | 0.00 | 74 | 1011.8 |
| 20260504042043 | 48 | 213 | 10.0 | 10.0 | 0.00 | 0.00 | 0.00 | 74 | 1011.4 |